Weather observations for the past three days for
Park Rapids Municipal Airport
Imperial (Metric)
Date Time (cdt) Wind (mph) Vis. (mi.) Weather Sky Cond. Temperature (ºF) Relative Humidity Wind Chill (°F) Heat Index (°F) Pressure Precipitation (in)
Air Dwpt 6 hour altimeter (in) sea level (mb) 1 hr 3 hr 6 hr
Max. Min.
12 13:53 SW 13 G 18 10.00 Fair CLR 84.9 62.1 46% 85 29.62 1002.4
12 12:53 W 10 10.00 Fair CLR 82.9 62.1 82.9 61 49% 84 29.64 1003.0
12 11:53 W 13 10.00 Fair CLR 81 61 51% 82 29.65 1003.3
12 10:53 SW 13 10.00 Fair CLR 77 59 54% 79 29.65 1003.7
12 09:53 S 14 G 23 10.00 Fair CLR 73.9 55.9 54% 29.66 1004.0
12 08:53 S 18 G 25 10.00 Fair CLR 73 55 53% 29.66 1003.9
12 06:53 E 5 10.00 Mostly Cloudy BKN110 61 54 63 55.9 78% 29.69 1005.0 0.03
12 05:53 S 7 10.00 Thunderstorm in Vicinity FEW060 BKN095 BKN120 62.1 53.1 73% 29.69 1004.9 0.03
12 04:53 S 6 10.00 A Few Clouds FEW100 59 48.9 69% 29.71 1005.7
12 03:53 SE 5 10.00 A Few Clouds FEW110 59 50 72% 29.72 1006.2
12 02:53 S 8 10.00 Fair CLR 57 50 78% 29.73 1006.6
12 01:53 S 5 10.00 Fair CLR 57 50 78% 29.75 1007.2
12 00:53 SE 5 10.00 Fair CLR 59 51.1 75 57 75% 29.77 1007.7
11 23:53 S 3 10.00 Fair CLR 62.1 51.1 67% 29.78 1008.0
11 22:53 W 6 10.00 Fair CLR 60.1 51.1 72% 29.78 1008.4
11 21:53 W 7 10.00 Fair CLR 63 52 68% 29.77 1007.9
11 20:53 W 8 10.00 Fair CLR 69.1 52 55% 29.75 1007.2
11 19:53 W 12 10.00 Fair CLR 73.9 51.1 45% 29.74 1006.9
11 18:53 W 14 G 29 10.00 Fair CLR 75 51.1 77 72 43% 78 29.74 1006.8
11 17:53 W 18 G 28 10.00 A Few Clouds FEW060 75.9 50 40% 78 29.73 1006.6
11 16:53 W 23 G 35 10.00 A Few Clouds and Breezy FEW060 75.9 50 40% 78 29.74 1006.8
11 15:53 W 21 G 32 10.00 Partly Cloudy and Breezy SCT060 77 48.9 37% 78 29.74 1006.6
11 14:53 NW 23 G 32 10.00 A Few Clouds and Breezy FEW060 75 50 42% 78 29.73 1006.6
11 13:53 W 24 G 33 10.00 Partly Cloudy and Breezy SCT060 75.9 51.1 42% 78 29.73 1006.5
11 12:53 W 16 G 30 10.00 Mostly Cloudy BKN060 BKN070 73.9 52 75 55.9 46% 29.74 1006.7
11 11:53 W 17 G 30 10.00 Fair CLR 73.9 52 46% 29.74 1006.7
11 10:53 W 14 G 26 10.00 Fair CLR 72 53.1 52% 29.74 1006.7
11 09:53 W 13 10.00 Fair CLR 70 55 59% 29.74 1006.7
11 08:53 SW 9 10.00 Fair CLR 64 55.9 75% 29.75 1007.2
11 07:53 S 8 10.00 Overcast OVC028 57.9 54 87% 29.75 1007.2
11 06:53 S 8 10.00 Overcast BKN034 OVC044 55.9 53.1 63 55 90% 29.75 1007.2 0.08
11 05:53 S 13 10.00 Overcast OVC042 55.9 53.1 90% 29.75 1007.2
11 04:53 SE 17 10.00 Overcast OVC046 55 53.1 93% 29.75 1007.4
11 03:53 SE 14 10.00 Light Rain FEW043 OVC055 55.9 51.1 84% 29.79 1008.7 0.07 0.08
11 02:53 S 8 10.00 Light Rain OVC085 57.9 50 75% 29.83 1009.9 0.01
11 01:53 S 12 10.00 Light Rain FEW075 OVC110 62.1 45 54% 29.84 1010.4
11 00:53 S 12 10.00 Overcast OVC090 63 44.1 71.1 60.1 50% 29.85 1010.7
10 23:53 SE 10 10.00 Fair CLR 60.1 45 58% 29.87 1011.4
10 22:53 SE 8 10.00 Fair CLR 62.1 46 56% 29.9 1012.5
10 21:53 SE 8 10.00 Fair CLR 62.1 46 56% 29.91 1012.8
10 20:53 SE 8 10.00 Fair CLR 64 46 52% 29.91 1012.8
10 19:53 SE 8 10.00 Fair CLR 66 44.1 45% 29.92 1013.2
10 18:53 S 14 G 23 10.00 Fair CLR 72 42.1 73 66.9 34% 29.93 1013.6
10 17:53 SE 12 10.00 Fair CLR 71.1 39 31% 29.93 1013.9
10 16:53 SE 9 10.00 Fair CLR 71.1 39 31% 29.97 1015.2
10 15:53 S 12 10.00 Fair CLR 70 39.9 34% 29.98 1015.6
10 14:53 Vrbl 5 G 17 10.00 Fair CLR 71.1 37 29% 30 1016.4
10 13:53 SE 10 10.00 Fair CLR 70 37.9 31% 30.02 1017.0
10 12:53 Vrbl 7 10.00 Fair CLR 66.9 39 68 46.9 36% 30.05 1018.1
10 11:53 S 5 10.00 Fair CLR 66.9 39 36% 30.07 1018.6
10 10:53 SE 8 10.00 Fair CLR 64 37.9 38% 30.09 1019.3
10 09:53 SW 5 10.00 Fair CLR 62.1 44.1 52% 30.11 1020.2
10 08:53 Calm 10.00 Fair CLR 57.9 46.9 67% 30.12 1020.4
10 07:53 Calm 10.00 Fair CLR 54 46.9 77% 30.12 1020.5
10 06:53 W 3 10.00 Fair CLR 46.9 45 48 37.9 93% 30.13 1020.8
10 05:53 Calm 10.00 Fair CLR 42.1 39.9 92% 30.12 1020.7
10 04:53 NW 3 10.00 Fair CLR 39.9 39 97% 30.12 1020.7
10 03:53 NW 3 10.00 Fair CLR 43 41 93% 30.11 1020.3
10 02:53 W 5 10.00 Fair CLR 43 41 93% 41 30.12 1020.4
10 01:53 NW 3 10.00 Fair CLR 46 43 89% 30.11 1020.2
10 00:53 N 3 10.00 Fair CLR 46.9 45 59 44.1 93% 30.11 1020.0
09 23:53 N 5 10.00 Fair CLR 50 46.9 89% 49 30.1 1019.7
09 22:53 N 3 10.00 Fair CLR 48.9 46 90% 30.09 1019.6
09 21:53 N 5 10.00 Fair CLR 52 46.9 83% 30.11 1020.0
09 20:53 N 7 10.00 Mostly Cloudy BKN025 55.9 46.9 72% 30.1 1019.6
09 19:53 N 10 10.00 Overcast OVC024 57.9 48 70% 30.09 1019.5
09 18:53 N 12 10.00 Overcast OVC026 59 48 64.9 59 67% 30.1 1019.6
09 17:53 N 14 10.00 Overcast OVC028 60.1 48 65% 30.1 1019.7
09 16:53 N 13 10.00 Overcast OVC033 62.1 48 60% 30.09 1019.3
09 15:53 N 18 G 26 10.00 Overcast OVC036 63 48 58% 30.08 1019.0
09 14:53 N 16 G 25 10.00 Mostly Cloudy BKN033 BKN095 63 46.9 56% 30.07 1018.6
Date Time (cdt) Wind (mph) Vis. (mi.) Weather Sky Cond. Air Dwpt Max. Min. Relative Humidity Wind Chill (°F) Heat Index (°F) altimeter (in) sea level (mb) 1 hr 3 hr 6 hr
6 hour
Temperature (ºF) Pressure Precipitation (in)